Location: El Portezuelo
(28.4984°N, 16.3589°W)
Time: 16:25:12
(UTC+00:00)

Cosmos 2344 - Pass Details

Date: 20 January 2020
Orbit: 1255 x 2987 km, 63.3° (Epoch: 18 February)

Event Time Altitude Azimuth Distance (km) Brightness Sun altitude
Exits shadow 05:37:57 61° 334° (NNW) 1,405 3.5 -30.5°
Drops below altitude 10° 05:44:38 10° 22° (NNE) 3,310 5.9 -29.1°
Sets 05:47:33 0° 26° (NNE) 4,375 6.6 -28.4°
